Weather in Novoselenginsk

Russia / Republic of Buryatia     51°05′35″N   106°37′45″E
temp.,
°C
wind,
m/s
gust,
m/s
humid.,
%
clouds,
%
prec.,
mm/h
press.,
hPa
HPBL,
m
17 may, mon
mon1723:00+10se1163100 0.0 100910
02:00+9wsw11715 0.0 100710
05:00+7sw117779 0.0 100510
08:00+12nnw2458100 0.0 1005454
11:00+10nnw5875100 2.0 1008663
14:00+13n675683 2.1 10071101
17:00+13n684840 0.0 10071193
20:00+11n3755100 0.0 1008683
18 may, tue
tue1823:00+8n227091 0.0 101015
02:00+7n597788 0.0 1010622
05:00+5nne3876100 0.0 1011506
08:00+5nnw2576100 0.7 1013609
11:00+9nw455695 0.8 10111450
14:00+11w354891 0.8 10101603
17:00+13wsw444583 0.0 10071666
20:00+11ssw225585 0.0 100526
19 may, wed
wed1923:00+9s226544 0.0 100519
02:00+7sse2269100 0.0 100112
05:00+7sse2267100 0.0 99822
08:00+10sw2459100 0.0 996368
11:00+15nnw3547100 0.0 997780
14:00+12nnw91151100 0.0 10011071
17:00+11n68535 0.0 1002897
20:00+10nne225738 0.0 100244
20 may, thu
thu2023:00+6n117230 0.0 100210
02:00+5wsw0077100 0.0 99910
05:00+6ene2273100 0.0 99624
08:00+10nnw2258100 0.0 998368
11:00+12n7953100 0.0 999944
14:00+13n665098 0.0 9981022
17:00+15nne774388 0.0 9941378
20:00+7nw61072100 0.1 997503
21 may, fri
fri2123:00+5nnw3107597 0.0 996544
02:00+4nnw3871100 0.1 995512
05:00+2nnw71474100 0.2 995894
08:00+1nw81581100 2.6 9971021
11:00+4nw111662100 1.2 9991336
14:00+3nw121861100 1.5 10001309
17:00+3nw111863100 0.1 10021461
20:00+2wnw91769100 0.1 10041385